User: anonymous   Login
Location: Unspecified
(0.0000°N, 0.0000°E)
Time: 19:08:57
(UTC+00:00)
Language:

SEDNA-1 - Orbit

View from above orbital plane
View from above orbital plane
View from above satellite
View from above satellite

Ground track
Ground track

The orbit is defined by the following mean orbital elements,

1 60580U          26145.43099264 +.00000000 +00000-0 +49196-3 0 00009
2 60580  97.6636 226.0085 0010182  71.8242 288.4093 15.06678791    01
Epoch (UTC): 25 May 2026 10:20:37
Eccentricity: 0.0010182
inclination: 97.6636°
perigee height: 539 km
apogee height: 553 km
right ascension of ascending node: 226.0085°
argument of perigee: 71.8242°
revolutions per day: 15.06678791
mean anomaly at epoch: 288.4093°

The dashed part of the orbit path shows where the satellite is in the earth's shadow,  

DLR